Mobile Downtown, AL

12:41 AM CST on November 18, 2017 (GMT -0600)
Mobile Downtown

Weather History for KBFM - April, 2014

Change the Weather History Date:

Saturday, April 19, 2014

  Actual Average Record
Temperature  
Mean Temperature 66 °F -  
Max Temperature 80 °F 75 °F 84 °F (2006)
Min Temperature 54 °F 56 °F 43 °F (2001)
Cooling Degree Days 2    
Growing Degree Days 16 (Base 50)    
Moisture  
Dew Point 51 °F    
Average Humidity 65    
Maximum Humidity 93    
Minimum Humidity 34    
Precipitation  
Precipitation 0.02 in - - ()
Sea Level Pressure  
Sea Level Pressure 30.09 in    
Wind  
Wind Speed 12 mph (North)    
Max Wind Speed 16 mph    
Max Gust Speed 25 mph    
Visibility 10 miles    
Events Rain    
Averages and records for this station are not official NWS values.
T = Trace of Precipitation, MM = Missing Value Source: NWS Daily Summary

Daily Weather History Graph

Daily Weather History Graph

Search for Another Location

Airport or City:

Trip Planner

Search our weather history database for the weather conditions in past years. The results will help you decide how hot, cold, wet, or windy it might be!

Date:

Astronomy

Apr. 19, 2014 Rise Set
Actual Time 6:20 AM CDT 7:22 PM CDT
Civil Twilight 5:55 AM CDT 7:47 PM CDT
Nautical Twilight 5:26 AM CDT 8:17 PM CDT
Astronomical Twilight 4:55 AM CDT 8:47 PM CDT
Moon 11:54 PM CDT (4/19) 9:47 AM CDT (4/19)
Length of Visible Light 13h 52m
Length of Day
13h 02m
Waning Gibbous, 78% of the Moon is Illuminated
Apr 19
Waning Gibbous
Apr 22
Last Quarter
Apr 29
New
May 6
First Quarter
May 14
Full

Hourly Weather History & Observations

Time (CDT) Temp. Dew Point Humidity Pressure Visibility Wind Dir Wind Speed Gust Speed Precip Events Conditions
12:53 AM 57.9 °F 52.0 °F 81% 30.10 in 10.0 mi NW 13.8 mph - N/A   Overcast
1:53 AM 57.0 °F 52.0 °F 83% 30.10 in 10.0 mi NNW 13.8 mph - 0.00 in Rain Light Rain
2:53 AM 55.9 °F 53.1 °F 90% 30.10 in 10.0 mi NW 12.7 mph - 0.01 in   Mostly Cloudy
4:53 AM 55.0 °F 52.0 °F 89% 30.07 in 10.0 mi NNW 15.0 mph - 0.01 in   Clear
5:10 AM 54.0 °F 52.0 °F 93% 30.07 in 10.0 mi NNW 16.1 mph 23.0 mph N/A   Partly Cloudy
5:53 AM 54.0 °F 51.1 °F 90% 30.10 in 10.0 mi NNW 12.7 mph - N/A   Partly Cloudy
6:53 AM 54.0 °F 51.1 °F 90% 30.11 in 10.0 mi NNW 11.5 mph - N/A   Clear
7:53 AM 57.0 °F 52.0 °F 83% 30.12 in 10.0 mi North 11.5 mph 18.4 mph N/A   Clear
8:53 AM 61.0 °F 53.1 °F 75% 30.13 in 10.0 mi NNE 8.1 mph - N/A   Clear
9:53 AM 64.9 °F 52.0 °F 63% 30.14 in 10.0 mi North 11.5 mph - N/A   Clear
10:53 AM 68.0 °F 50.0 °F 52% 30.13 in 10.0 mi North 15.0 mph - N/A   Clear
11:53 AM 72.0 °F 50.0 °F 46% 30.10 in 10.0 mi North 12.7 mph 20.7 mph N/A   Clear
12:53 PM 73.9 °F 48.9 °F 41% 30.08 in 10.0 mi North 15.0 mph 24.2 mph N/A   Clear
1:53 PM 75.9 °F 48.9 °F 38% 30.06 in 10.0 mi North 12.7 mph 20.7 mph N/A   Clear
2:53 PM 79.0 °F 48.9 °F 35% 30.05 in 10.0 mi North 15.0 mph 25.3 mph N/A   Clear
3:53 PM 79.0 °F 48.0 °F 34% 30.04 in 10.0 mi North 15.0 mph 23.0 mph N/A   Clear
4:53 PM 79.0 °F 48.9 °F 35% 30.03 in 10.0 mi North 11.5 mph 19.6 mph N/A   Clear
5:53 PM 77.0 °F 50.0 °F 39% 30.04 in 10.0 mi NNE 12.7 mph - N/A   Clear
6:53 PM 73.9 °F 48.9 °F 41% 30.06 in 10.0 mi North 10.4 mph - N/A   Clear
7:53 PM 71.1 °F 48.0 °F 44% 30.09 in 10.0 mi North 6.9 mph - N/A   Clear
8:53 PM 62.1 °F 51.1 °F 67% 30.11 in 10.0 mi Calm Calm - N/A   Clear
9:53 PM 60.1 °F 53.1 °F 78% 30.12 in 10.0 mi NNE 3.5 mph - N/A   Clear
10:53 PM 57.9 °F 52.0 °F 81% 30.12 in 10.0 mi Calm Calm - N/A   Clear
11:53 PM 57.9 °F 53.1 °F 84% 30.13 in 10.0 mi Calm Calm - N/A   Clear